KCGI

Cape Girardeau Regional Airport

Airport
ICAO code
KCGI
IATA Code
CGI
Summary
ICAO Region
NAM
ICAO Territory
Location

Scott City, Missouri

Serving
Cape Girardeau
Elevation
342 ft
Coordinates
37° 13' 36" N , 89° 33' 53" W
KCC
Metar
KCGI 191053Z AUTO 34012KT 10SM OVC018 12/09 A3011 RMK AO2 SLP194 T01220094

Description

Cape Girardeau Regional Airport is a public-use airport in Scott County, Missouri. It located 5 nm southwest of the central business district of Cape Girardeau, a city in Cape Girardeau County, Missouri.

 

Airport map

Aerial View

SKYbrary Partners:

Safety knowledge contributed by: